Location: ??????????
(54.4061°N, 22.6114°E)
Time: 01:57:32
(UTC+00:00)

USA 238 DEB - Pass Details

Date: 23 October 2019
Orbit: 1028 x 1184 km, 63.4° (Epoch: 11 November)

Event Time Altitude Azimuth Distance (km) Brightness Sun altitude
Rises 19:23:51 0° 264° (W) 3,824 7.2 -35.6°
Reaches altitude 10° 19:26:35 10° 270° (W) 2,890 6.5 -36.0°
Maximum altitude 19:33:09 46° 343° (NNW) 1,432 4.5 -36.7°
Enters shadow 19:33:35 46° 354° (N) 1,445 4.5 -36.8°
